Regional Weather Roundup
Issued by NWS

Home | Current Version | Previous Version | Text Only | Print | Product List | Glossary Off
Versions: 1 2 3 4 5 6 7 8 9 10 11 12 13 14 15 16 17 18 19 20 21 22 23 24 25 26 27 28 29 30 31 32 33 34 35 36 37 38 39 40 41 42 43 44 45 46 47 48 49 50

956
ASUS45 KSLC 260510
RWRUT

UTAH REGIONAL WEATHER ROUNDUP
NATIONAL WEATHER SERVICE SALT LAKE CITY UT
1100 PM MDT TUE JUL 25 2017

UTZ001>011-023>025-260600-

NORTHERN UTAH

CITY           SKY/WX    TMP DP  RH WIND       PRES   REMARKS
BRIGHAM CITY   MOCLDY    76  51  41 CALM      30.11R
HILL AFB       CLOUDY    73  56  56 SE6       30.14R
LOGAN          PTCLDY    72  55  55 SE5       30.12R
OGDEN          PTCLDY    75  57  53 S7        30.10R
SALT LAKE CITY PTCLDY    78  60  53 SE9       30.10R
TOOELE VALLEY  PTCLDY    72  59  64 S6        30.11R
WENDOVER       LGT RAIN  71  55  56 W21G28    30.13R
HEBER CITY     MOCLDY    64  55  72 CALM      30.21R
WEST JORDAN    CLEAR     71  65  81 S6        30.14R

$$

UTZ011>015-024>027-260600-

CENTRAL/NORTHEAST UTAH

CITY           SKY/WX    TMP DP  RH WIND       PRES   REMARKS
PROVO AIRPORT  PTCLDY    71  61  70 SE5       30.16R
MOAB/CANYONLAN PTCLDY    69  67  93 CALM      30.13S
DELTA          PTCLDY    70  57  64 NE5       30.16R
PRICE          PTCLDY    64  62  93 W3        30.24R
ROOSEVELT      CLOUDY    68  63  83 CALM      30.22S
VERNAL         CLOUDY    66  60  81 CALM      30.21R

$$

UTZ013>016-019>022-027-260600-

SOUTHERN UTAH

CITY           SKY/WX    TMP DP  RH WIND       PRES   REMARKS
BRYCE CANYON   CLEAR     57  57 100 W3        30.38R
CEDAR CITY     CLEAR     63  61  93 S8        30.25R
MILFORD        PTCLDY    70  61  73 S16       30.19R
ST GEORGE      PTCLDY    76  69  79 SW5       30.10S
HANKSVILLE     CLEAR     72  66  83 CALM      30.17R
BLANDING       PTCLDY    64  60  88 CALM      30.31S

$$

REGIONAL REPORTS     COLORADO/ARIZONA

CITY           SKY/WX    TMP DP  RH WIND       PRES   REMARKS
CRAIG, CO      LGT RAIN  64  60  87 CALM      30.25F
GRAND JUNCTION LGT RAIN  69  64  84 E12       30.15F
RIFLE, CO      CLOUDY    70  56  61 S5        30.20S
MONTROSE, CO   CLOUDY    64  63  96 NW6       30.25R
CORTEZ, CO     CLEAR     61  59  93 SE6       30.25R
COLORADO CITY    N/A     66  63  88 NE3       30.26S
PAGE, AZ       CLEAR     73  62  68 NW7       30.14R
GRAND CANYON   CLEAR     56  56 100 CALM      30.34R
KINGMAN, AZ    CLEAR     68  67  96 E3        30.13R
FLAGSTAFF, AZ  MOCLDY    60  56  86 W3        30.36R

$$

REGIONAL REPORTS    NEVADA/IDAHO/WYOMING

CITY           SKY/WX    TMP DP  RH WIND       PRES   REMARKS
LAS VEGAS, NV  PTCLDY    80  69  69 E10       30.03R
ELY, NY        CLOUDY    60  57  89 MISG      30.29S
ELKO, NV       CLOUDY    71  50  47 NE5       30.15R
POCATELLO, ID  CLEAR     70  50  49 CALM      30.10R
BURLEY, ID     LGT RAIN  71  58  63 W16       30.08R
FORT BRIDGER,  CLOUDY    61  53  74 W7        30.32R
EVANSTON, WY   CLOUDY    61  54  77 SW5       30.30R
ROCK SPRINGS,  LGT RAIN  58  54  86 NE13      30.31R
KEMMERER, WY     N/A    N/A N/A N/A N13       30.32R

$$




USA.gov is the U.S. government's official web portal to all federal, state and local government web resources and services.